• In Hungary
  • List of Countries
  • For 7 days
  • Water Temperature
  • Satellite Maps
  • Weather Map
  • News
  • Weather Widgets
  • user-avatar
    Login

    Hourly Weather Rehovot

    Today, 19 August, Saturday

    Time Temperature Precipitation Wind Pressure Humidity
    00:00 +29°C° 0 mm 2 mps 753 mmHg 57%
    01:00 +29°C° 0 mm 2 mps 753 mmHg 58%
    02:00 +28°C° 0 mm 2 mps 753 mmHg 57%
    03:00 +28°C° 0 mm 1 mps 753 mmHg 58%
    04:00 +28°C° 0 mm 1 mps 753 mmHg 59%
    05:00 +28°C° 0 mm 1 mps 753 mmHg 59%
    06:00 +29°C° 0 mm 1 mps 753 mmHg 53%
    07:00 +30°C° 0 mm 1 mps 754 mmHg 46%
    08:00 +32°C° 0 mm 1 mps 754 mmHg 39%
    09:00 +33°C° 0 mm 1 mps 754 mmHg 36%
    10:00 +35°C° 0 mm 2 mps 754 mmHg 32%
    11:00 +37°C° 0 mm 3 mps 754 mmHg 29%
    12:00 +37°C° 0 mm 4 mps 753 mmHg 29%
    13:00 +37°C° 0 mm 4 mps 753 mmHg 29%
    14:00 +39°C° 0 mm 5 mps 753 mmHg 29%
    15:00 +37°C° 0 mm 5 mps 753 mmHg 32%
    16:00 +36°C° 0 mm 5 mps 752 mmHg 36%
    17:00 +35°C° 0 mm 5 mps 752 mmHg 39%
    18:00 +34°C° 0 mm 5 mps 752 mmHg 43%
    19:00 +33°C° 0 mm 5 mps 753 mmHg 48%
    20:00 +32°C° 0 mm 4 mps 753 mmHg 53%
    21:00 +32°C° 0 mm 4 mps 753 mmHg 53%
    22:00 +32°C° 0 mm 4 mps 753 mmHg 54%
    23:00 +30°C° 0 mm 4 mps 753 mmHg 55%

    Tomorrow, 20 August, Sunday

    Time Temperature Precipitation Wind Pressure Humidity
    00:00 +30°C° 0 mm 3 mps 753 mmHg 55%
    01:00 +30°C° 0 mm 3 mps 753 mmHg 56%
    02:00 +30°C° 0 mm 3 mps 753 mmHg 56%
    03:00 +29°C° 0 mm 3 mps 753 mmHg 57%
    04:00 +29°C° 0 mm 3 mps 753 mmHg 59%
    05:00 +29°C° 0 mm 3 mps 753 mmHg 60%
    06:00 +30°C° 0 mm 2 mps 753 mmHg 53%
    07:00 +31°C° 0 mm 2 mps 753 mmHg 46%
    08:00 +34°C° 0 mm 2 mps 753 mmHg 40%
    09:00 +35°C° 0 mm 3 mps 753 mmHg 37%
    10:00 +36°C° 0 mm 4 mps 753 mmHg 34%
    11:00 +39°C° 0 mm 5 mps 752 mmHg 32%
    12:00 +39°C° 0 mm 5 mps 752 mmHg 34%
    13:00 +39°C° 0 mm 6 mps 752 mmHg 36%
    14:00 +39°C° 0 mm 7 mps 751 mmHg 37%
    15:00 +36°C° 0 mm 7 mps 751 mmHg 42%
    16:00 +35°C° 0 mm 7 mps 751 mmHg 47%
    17:00 +34°C° 0 mm 6 mps 751 mmHg 51%
    18:00 +33°C° 0 mm 6 mps 751 mmHg 56%
    19:00 +32°C° 0 mm 5 mps 752 mmHg 60%
    20:00 +30°C° 0 mm 4 mps 752 mmHg 65%
    21:00 +30°C° 0 mm 4 mps 752 mmHg 66%
    22:00 +30°C° 0 mm 4 mps 752 mmHg 66%
    23:00 +30°C° 0 mm 4 mps 752 mmHg 67%

    Day after tomorrow, 21 August, Monday

    Time Temperature Precipitation Wind Pressure Humidity
    00:00 +29°C° 0 mm 3 mps 752 mmHg 68%
    01:00 +29°C° 0 mm 3 mps 752 mmHg 69%
    02:00 +29°C° 0 mm 3 mps 752 mmHg 69%
    03:00 +29°C° 0 mm 3 mps 752 mmHg 70%
    04:00 +28°C° 0 mm 2 mps 752 mmHg 71%
    05:00 +28°C° 0 mm 2 mps 752 mmHg 72%
    06:00 +29°C° 0 mm 2 mps 752 mmHg 66%
    07:00 +30°C° 0 mm 2 mps 752 mmHg 61%
    08:00 +31°C° 0 mm 2 mps 753 mmHg 55%
    09:00 +33°C° 0 mm 3 mps 752 mmHg 50%
    10:00 +34°C° 0 mm 3 mps 752 mmHg 46%
    11:00 +35°C° 0 mm 4 mps 752 mmHg 41%
    12:00 +35°C° 0 mm 5 mps 752 mmHg 42%
    13:00 +35°C° 0 mm 5 mps 752 mmHg 43%
    14:00 +35°C° 0 mm 6 mps 751 mmHg 44%
    15:00 +35°C° 0 mm 6 mps 751 mmHg 48%
    16:00 +34°C° 0 mm 6 mps 751 mmHg 52%
    17:00 +33°C° 0 mm 6 mps 751 mmHg 56%
    18:00 +32°C° 0 mm 5 mps 752 mmHg 60%
    19:00 +30°C° 0 mm 5 mps 752 mmHg 65%
    20:00 +29°C° 0 mm 4 mps 752 mmHg 69%
    21:00 +29°C° 0 mm 4 mps 752 mmHg 70%
    22:00 +29°C° 0 mm 3 mps 752 mmHg 70%
    23:00 +29°C° 0 mm 3 mps 752 mmHg 71%

    22 August, Tuesday

    Time Temperature Precipitation Wind Pressure Humidity
    00:00 +29°C° 0 mm 3 mps 752 mmHg 72%
    01:00 +28°C° 0 mm 3 mps 752 mmHg 72%
    02:00 +28°C° 0 mm 3 mps 752 mmHg 73%
    03:00 +28°C° 0 mm 2 mps 752 mmHg 74%
    04:00 +28°C° 0 mm 2 mps 752 mmHg 75%
    05:00 +27°C° 0 mm 2 mps 752 mmHg 75%
    06:00 +28°C° 0 mm 2 mps 753 mmHg 70%
    07:00 +29°C° 0 mm 2 mps 753 mmHg 64%
    08:00 +30°C° 0 mm 2 mps 753 mmHg 58%
    09:00 +31°C° 0 mm 3 mps 753 mmHg 53%
    10:00 +34°C° 0 mm 4 mps 752 mmHg 48%
    11:00 +35°C° 0 mm 4 mps 752 mmHg 43%
    12:00 +35°C° 0 mm 5 mps 752 mmHg 43%
    13:00 +35°C° 0 mm 5 mps 751 mmHg 43%
    14:00 +35°C° 0 mm 6 mps 751 mmHg 43%
    15:00 +35°C° 0 mm 6 mps 751 mmHg 47%
    16:00 +34°C° 0 mm 6 mps 751 mmHg 50%
    17:00 +33°C° 0 mm 6 mps 751 mmHg 53%
    18:00 +32°C° 0 mm 5 mps 751 mmHg 58%
    19:00 +30°C° 0 mm 4 mps 751 mmHg 63%
    20:00 +30°C° 0 mm 4 mps 752 mmHg 68%
    21:00 +29°C° 0 mm 4 mps 752 mmHg 69%
    22:00 +29°C° 0 mm 3 mps 752 mmHg 70%
    23:00 +29°C° 0 mm 3 mps 752 mmHg 72%

    23 August, Wednesday

    Time Temperature Precipitation Wind Pressure Humidity
    00:00 +29°C° 0 mm 3 mps 752 mmHg 72%
    01:00 +28°C° 0 mm 2 mps 752 mmHg 73%
    02:00 +28°C° 0 mm 2 mps 751 mmHg 74%
    03:00 +28°C° 0 mm 2 mps 751 mmHg 75%
    04:00 +28°C° 0 mm 2 mps 752 mmHg 76%
    05:00 +27°C° 0 mm 1 mps 752 mmHg 76%
    06:00 +28°C° 0 mm 2 mps 752 mmHg 70%
    07:00 +29°C° 0 mm 2 mps 752 mmHg 63%
    08:00 +30°C° 0 mm 2 mps 752 mmHg 57%
    09:00 +33°C° 0 mm 3 mps 752 mmHg 51%
    10:00 +34°C° 0 mm 3 mps 752 mmHg 45%
    11:00 +35°C° 0 mm 3 mps 752 mmHg 39%
    12:00 +36°C° 0 mm 4 mps 751 mmHg 39%
    13:00 +36°C° 0 mm 5 mps 751 mmHg 40%
    14:00 +36°C° 0 mm 5 mps 751 mmHg 40%
    15:00 +36°C° 0 mm 5 mps 751 mmHg 43%
    16:00 +35°C° 0 mm 5 mps 751 mmHg 45%
    17:00 +34°C° 0 mm 5 mps 751 mmHg 48%
    18:00 +33°C° 0 mm 5 mps 751 mmHg 53%
    19:00 +33°C° 0 mm 4 mps 751 mmHg 58%
    20:00 +32°C° 0 mm 4 mps 751 mmHg 63%
    21:00 +30°C° 0 mm 3 mps 751 mmHg 64%
    22:00 +30°C° 0 mm 3 mps 751 mmHg 66%
    23:00 +30°C° 0 mm 3 mps 751 mmHg 67%

    24 August, Thursday

    Time Temperature Precipitation Wind Pressure Humidity
    00:00 +30°C° 0 mm 3 mps 751 mmHg 68%
    01:00 +29°C° 0 mm 3 mps 751 mmHg 69%
    02:00 +29°C° 0 mm 3 mps 751 mmHg 70%
    03:00 +29°C° 0 mm 2 mps 751 mmHg 71%
    04:00 +29°C° 0 mm 2 mps 751 mmHg 72%
    05:00 +28°C° 0 mm 2 mps 752 mmHg 73%
    06:00 +30°C° 0 mm 2 mps 752 mmHg 66%
    07:00 +31°C° 0 mm 2 mps 752 mmHg 59%
    08:00 +32°C° 0 mm 2 mps 752 mmHg 53%
    09:00 +35°C° 0 mm 3 mps 752 mmHg 47%
    10:00 +37°C° 0 mm 3 mps 752 mmHg 42%
    11:00 +38°C° 0 mm 4 mps 751 mmHg 37%
    12:00 +40°C° 0 mm 4 mps 751 mmHg 37%
    13:00 +40°C° 0 mm 5 mps 751 mmHg 38%
    14:00 +40°C° 0 mm 6 mps 750 mmHg 38%
    15:00 +40°C° 0 mm 6 mps 750 mmHg 42%
    16:00 +39°C° 0 mm 5 mps 750 mmHg 45%
    17:00 +37°C° 0 mm 5 mps 750 mmHg 48%
    18:00 +36°C° 0 mm 5 mps 751 mmHg 52%
    19:00 +35°C° 0 mm 4 mps 751 mmHg 56%
    20:00 +34°C° 0 mm 3 mps 751 mmHg 60%
    21:00 +34°C° 0 mm 3 mps 751 mmHg 61%
    22:00 +34°C° 0 mm 3 mps 751 mmHg 63%
    23:00 +32°C° 0 mm 2 mps 751 mmHg 64%
    Show more